sat.trackr.live / text

‹ back to catalog

STARLINK-3768

NORAD 52301 · 2022-041AS

PAYLOAD ACTIVE UNKNOWN

§ Identity

Operator
Country
US
Launch date
2022-04-21
Launch site
AFETR
Launch vehicle
Mass (kg)
RCS (m²)

Purposes: comms

External: N2YO · Heavens-Above · Gunter

§ Orbital elements

Epoch: 2026-09-19T16:58:17.571648Z

Period
93.90 min
Inclination
53.1601°
Eccentricity
0.0001234
Mean motion
15.33548570 rev/d
Perigee alt
464.4 km
Apogee alt
466.1 km
Semi-major
6,843.4 km
B*
1.8522e-6
RAAN
295.7170°
Arg perigee
73.2215°
Mean anomaly
286.8923°
Rev number
24,396

§ Raw data

STARLINK-37681 52301U 22041AS  26262.70714782 -.00000312  00000+0  18522-5 0  99932 52301  53.1601 295.7170 0001234  73.2215 286.8923 15.33548570243963

JSON: /api/v1/satellites/52301 · /tle

For live sub-satellite position, see the globe view (requires WebGL).

§ Visibility from observer

Set your observer location to see the next 7 days of passes ≥ 10°. The values pass through the URL so the page stays shareable.

No JS? Fill the form by hand. The geolocation button needs JavaScript.